BEIDOU-2 IGSO-1 (C06) 1 36828U 10036A 25260.66403830 -.00000162 00000+0 00000+0 0 9990 2 36828 54.2778 165.4309 0048486 216.7568 317.9917 1.00250330 55365 BEIDOU-2 G4 (C04) 1 37210U 10057A 25261.27336476 -.00000130 00000+0 00000+0 0 9993 2 37210 2.9679 70.2032 0008472 171.1557 14.5545 1.00271392 54569 BEIDOU-2 IGSO-2 (C07) 1 37256U 10068A 25260.71915534 -.00000170 00000+0 00000+0 0 9995 2 37256 48.0393 275.2054 0048483 216.5514 230.7374 1.00259203 54061 BEIDOU-2 IGSO-3 (C08) 1 37384U 11013A 25260.81341112 -.00000167 00000+0 00000+0 0 9990 2 37384 62.0298 42.7328 0036116 179.9107 173.2593 1.00291648 52920 BEIDOU-2 IGSO-4 (C09) 1 37763U 11038A 25260.66297678 -.00000138 00000+0 00000+0 0 9996 2 37763 54.5793 168.1220 0144851 230.7417 289.9173 1.00259285 51915 BEIDOU-2 IGSO-5 (C10) 1 37948U 11073A 25261.00823667 -.00000147 00000+0 00000+0 0 9992 2 37948 48.1765 274.9094 0110241 221.5331 319.4188 1.00266004 50407 BEIDOU-2 G5 (C05) 1 38091U 12008A 25261.16548725 .00000038 00000+0 00000+0 0 9995 2 38091 2.8913 70.9952 0007416 223.6983 180.9927 1.00268039 49647 BEIDOU-2 M3 (C11) 1 38250U 12018A 25259.87701736 -.00000058 00000+0 00000+0 0 9994 2 38250 55.9904 314.0781 0023989 267.1456 92.6467 1.86229664 90858 BEIDOU-2 M4 (C12) 1 38251U 12018B 25258.73582397 -.00000057 00000+0 00000+0 0 9998 2 38251 55.8937 313.3526 0015107 266.4959 93.3962 1.86231996 90833 BEIDOU-2 M6 (C14) 1 38775U 12050B 25260.59438159 .00000007 00000+0 00000+0 0 9992 2 38775 56.3032 71.9235 0011094 357.5924 2.4415 1.86230931 88238 BEIDOU-2 G6 (C02) 1 38953U 12059A 25261.04295902 -.00000194 00000+0 00000+0 0 9995 2 38953 3.7262 76.3627 0006222 311.1390 69.2035 1.00270552 47188 BEIDOU-3S IGSO-1S (C31) 1 40549U 15019A 25257.08844315 -.00000146 00000+0 00000+0 0 9992 2 40549 49.7179 298.7880 0041392 196.1629 342.9667 1.00258147 38305 BEIDOU-3S M2S (C58) 1 40748U 15037A 25260.01410786 -.00000054 00000+0 00000+0 0 9999 2 40748 55.1120 311.4415 0012513 254.8145 105.1139 1.86229176 69039 BEIDOU-3S M1S (C57) 1 40749U 15037B 25260.79266850 -.00000054 00000+0 00000+0 0 9996 2 40749 55.1078 311.4054 0002476 354.2985 5.7669 1.86253905 69057 BEIDOU-3S IGSO-2S (C56) 1 40938U 15053A 25260.62821684 -.00000101 00000+0 00000+0 0 9991 2 40938 49.6475 262.0216 0062308 189.5151 225.6705 1.00289767 36623 BEIDOU-2 IGSO-6 (C13) 1 41434U 16021A 25260.84964199 -.00000147 00000+0 00000+0 0 9992 2 41434 59.8483 40.7561 0056447 227.9155 129.7296 1.00269938 34747 BEIDOU-2 G7 (C03) 1 41586U 16037A 25261.88936586 -.00000372 00000+0 00000+0 0 9991 2 41586 1.5463 66.5873 0005729 346.8700 15.2363 1.00276697 4160 BEIDOU-3 M1 (C19) 1 43001U 17069A 25260.89689311 .00000007 00000+0 00000+0 0 9996 2 43001 56.4522 72.0686 0007188 317.4793 42.5042 1.86231194 53539 BEIDOU-3 M2 (C20) 1 43002U 17069B 25259.22423998 .00000006 00000+0 00000+0 0 9998 2 43002 56.4496 72.1603 0006017 355.9661 4.0687 1.86230790 53495 BEIDOU-3 M7 (C27) 1 43107U 18003A 25260.57936368 -.00000056 00000+0 00000+0 0 9999 2 43107 54.5697 311.8115 0002669 97.3452 262.7522 1.86232454 52273 BEIDOU-3 M8 (C28) 1 43108U 18003B 25257.30184281 -.00000057 00000+0 00000+0 0 9997 2 43108 54.5655 311.9087 0004786 256.4727 103.5370 1.86230861 52220 BEIDOU-3 M4 (C22) 1 43207U 18018A 25260.96511977 .00000007 00000+0 00000+0 0 9999 2 43207 56.4113 72.1397 0005673 37.6074 322.4715 1.86231111 51672 BEIDOU-3 M3 (C21) 1 43208U 18018B 25259.42083444 .00000006 00000+0 00000+0 0 9991 2 43208 56.4094 72.1948 0005470 341.3023 18.7174 1.86231059 51649 BEIDOU-3 M9 (C29) 1 43245U 18029A 25259.10039581 -.00000050 00000+0 00000+0 0 9992 2 43245 54.4415 309.5242 0002070 233.4777 126.5678 1.86232555 50793 BEIDOU-3 M10 (C30) 1 43246U 18029B 25259.03481941 -.00000051 00000+0 00000+0 0 9997 2 43246 54.4393 309.5543 0002620 0.9065 359.1584 1.86229081 50779 BEIDOU-2 IGSO-7 (C16) 1 43539U 18057A 25260.66639074 -.00000178 00000+0 00000+0 0 9996 2 43539 55.1684 165.4261 0092166 236.4901 306.8460 1.00283249 26395 BEIDOU-3 M5 (C23) 1 43581U 18062A 25258.18563667 -.00000014 00000+0 00000+0 0 9996 2 43581 54.0951 191.6548 0004193 299.9688 59.9809 1.86228561 48516 BEIDOU-3 M6 (C24) 1 43582U 18062B 25258.58617278 -.00000022 00000+0 00000+0 0 9998 2 43582 54.0946 191.6303 0005866 21.3020 338.7120 1.86229666 48527 BEIDOU-3 M12 (C26) 1 43602U 18067A 25260.13386593 -.00000044 00000+0 00000+0 0 9997 2 43602 54.1883 190.3009 0008153 30.4932 329.5400 1.86227545 48034 BEIDOU-3 M11 (C25) 1 43603U 18067B 25258.65727728 -.00000024 00000+0 00000+0 0 9999 2 43603 54.1857 190.3152 0004770 18.3829 341.6253 1.86227093 48035 BEIDOU-3 M13 (C32) 1 43622U 18072A 25260.76267079 .00000006 00000+0 00000+0 0 9998 2 43622 56.3835 71.6650 0004021 320.4814 39.5280 1.86231134 47583 BEIDOU-3 M14 (C33) 1 43623U 18072B 25260.09118801 .00000007 00000+0 00000+0 0 9994 2 43623 56.3848 71.6811 0003475 18.3165 341.7352 1.86231143 47567 BEIDOU-3 M16 (C35) 1 43647U 18078A 25258.63929236 -.00000051 00000+0 00000+0 0 9995 2 43647 54.3386 309.6015 0005805 21.6897 338.3987 1.86232217 47048 BEIDOU-3 M15 (C34) 1 43648U 18078B 25259.84237975 -.00000051 00000+0 00000+0 0 9992 2 43648 54.3333 309.5607 0002413 29.3182 330.7611 1.86232273 47087 BEIDOU-3 G1 (C59) 1 43683U 18085A 25261.32435326 -.00000296 00000+0 00000+0 0 9996 2 43683 2.8910 105.1798 0003562 10.3383 138.8134 1.00272282 25336 BEIDOU-3 M17 (C36) 1 43706U 18093A 25257.31768370 .00000002 00000+0 00000+0 0 9997 2 43706 54.1786 191.6561 0008970 294.1062 67.9365 1.86228107 46405 BEIDOU-3 M18 (C37) 1 43707U 18093B 25258.78697882 -.00000025 00000+0 00000+0 0 9995 2 43707 54.1791 191.5981 0007534 326.1981 33.7427 1.86229838 46422 BEIDOU-3 IGSO-1 (C38) 1 44204U 19023A 25261.17499046 -.00000207 00000+0 00000+0 0 9993 2 44204 58.3157 40.4594 0025351 216.4638 282.2766 1.00269892 4483 BEIDOU-2 G8 (C01) 1 44231U 19027A 25261.32629160 -.00000267 00000+0 00000+0 0 9992 2 44231 1.4415 74.3550 0006721 260.4229 284.7153 1.00270164 23350 BEIDOU-3 IGSO-2 (C39) 1 44337U 19035A 25247.72162405 -.00000168 00000+0 00000+0 0 9990 2 44337 55.2150 161.3741 0035069 208.7975 349.2962 1.00246132 22801 BEIDOU-3 M24 (C46) 1 44542U 19061A 25259.39530264 -.00000034 00000+0 00000+0 0 9997 2 44542 54.4061 191.9627 0008791 3.9256 356.0672 1.86229323 40690 BEIDOU-3 M23 (C45) 1 44543U 19061B 25259.80410256 -.00000039 00000+0 00000+0 0 9997 2 44543 54.4046 191.9172 0005740 350.5552 196.3112 1.86229434 40709 BEIDOU-3 IGSO-3 (C40) 1 44709U 19073A 25260.46696308 -.00000150 00000+0 00000+0 0 9996 2 44709 55.2692 283.8459 0045576 191.7649 168.1926 1.00270205 21720 BEIDOU-3 M22 (C44) 1 44793U 19078A 25259.77352443 -.00000051 00000+0 00000+0 0 9995 2 44793 54.1843 309.4377 0004495 28.7896 331.3007 1.86232104 39555 BEIDOU-3 M21 (C43) 1 44794U 19078B 25260.44615037 -.00000051 00000+0 00000+0 0 9993 2 44794 54.1570 309.3808 0002720 22.9955 337.0834 1.86227769 39576 BEIDOU-3 M19 (C41) 1 44864U 19090A 25260.15946466 .00000007 00000+0 00000+0 0 9996 2 44864 56.3175 71.8305 0015455 288.9853 73.8380 1.86231453 39152 BEIDOU-3 M20 (C42) 1 44865U 19090B 25260.55884435 .00000007 00000+0 00000+0 0 9998 2 44865 56.3202 71.8516 0012938 303.3771 56.8304 1.86231402 39142 BEIDOU-3 G2 (C60) 1 45344U 20017A 25261.14643014 -.00000159 00000+0 00000+0 0 9993 2 45344 2.8389 42.1268 0001369 279.3831 168.5469 1.00270719 20533 BEIDOU-3 G3 (C61) 1 45807U 20040A 25261.31845991 -.00000373 00000+0 00000+0 0 9998 2 45807 1.7804 65.6171 0004231 329.1595 187.9403 1.00271816 19341 BEIDOU-3 G4 (C62) 1 56564U 23066A 25260.90004426 -.00000132 00000+0 00000+0 0 9998 2 56564 1.0109 296.2599 0005794 214.2129 330.6787 1.00271704 8663 BEIDOU-3 M28 (C50) 1 58654U 23207A 25257.84021662 -.00000003 00000+0 00000+0 0 9994 2 58654 55.6103 71.5942 0004602 147.7169 212.3485 1.86230208 11710 BEIDOU-3 M26 (C48) 1 58655U 23207B 25260.32336479 .00000003 00000+0 00000+0 0 9996 2 58655 55.5097 71.5109 0001099 228.7626 131.2671 1.86231445 11745 BEIDOU-3 M25 (C47) 1 61186U 24168B 25260.68445058 -.00000056 00000+0 00000+0 0 9998 2 61186 54.7147 311.7022 0004780 279.1289 80.2139 1.86230047 6702 BEIDOU-3 M27 (C49) 1 61187U 24168C 25260.47961588 -.00000055 00000+0 00000+0 0 9996 2 61187 54.7103 311.6932 0001119 303.0679 53.8487 1.86230074 4178